Home   Weather   Township of Fairfield   Past weeks
Flag for USA

Past Weather in Township of Fairfield, Minnesota, USA — Yesterday and Last 2 Weeks

Currently: 54 °F. Scattered clouds. (Weather station: Fergus Falls Weather Reporting System, USA). See more current weather

Past Weather in Township of Fairfield — Graph

°F

Township of Fairfield Temperature Yesterday

Maximum temperature yesterday: 88 °F (at 1:35 pm)
Minimum temperature yesterday: 68 °F (at 5:35 am)
Average temperature yesterday: 77 °F

High & Low Weather Summary for the Past Weeks

 TemperatureHumidityPressure
High88 °F (Sep 19, 1:35 pm)100% (Sep 7, 6:55 am)30.16 "Hg (Sep 7, 6:55 am)
Low46 °F (Sep 17, 7:15 am)29% (Sep 14, 4:55 pm)29.51 "Hg (Sep 20, 1:55 am)
Average64 °F66%29.87 "Hg
* Reported Sep 5 6:15 pm — Sep 20 6:35 pm, Township of Fairfield. Weather by CustomWeather, © 2021

Note: Actual official high and low records may vary slightly from our data, if they occured in-between our weather recording intervals... More about our weather records

Township of Fairfield Weather History for the Previous 24 Hours

Scroll right to see more
 ConditionsComfort  
Time TempWeatherWind HumidityBarometerVisibility
6:35 pm
Mon, Sep 20
54 °FScattered clouds.9 mph94%29.84 "Hg10 mi
6:15 pm54 °FLight rain. Overcast.10 mph94%29.84 "Hg10 mi
5:55 pm54 °FLight rain. Broken clouds.14 mph94%29.83 "Hg10 mi
5:35 pm54 °FOvercast.15 mph88%29.82 "Hg10 mi
5:15 pm54 °FMostly cloudy.13 mph94%29.81 "Hg10 mi
4:55 pm54 °FLight rain. More clouds than sun.18 mph94%29.79 "Hg10 mi
4:35 pm54 °FMore clouds than sun.15 mph94%29.79 "Hg10 mi
4:15 pm55 °FCloudy.22 mph94%29.77 "Hg7 mi
3:35 pm57 °FCloudy.15 mph94%29.73 "Hg10 mi
3:15 pm57 °FMore clouds than sun.12 mph94%29.75 "Hg10 mi
2:55 pm57 °FOvercast.13 mph94%29.76 "Hg10 mi
2:35 pm57 °FLight rain. Mostly cloudy.14 mph94%29.74 "Hg10 mi
2:15 pm57 °FLight rain. Mostly cloudy.17 mph94%29.75 "Hg7 mi
1:55 pm57 °FDrizzle. Mostly cloudy.17 mph94%29.74 "Hg7 mi
1:35 pm57 °FOvercast.16 mph94%29.74 "Hg10 mi
1:15 pm57 °FOvercast.14 mph94%29.73 "Hg10 mi
12:55 pm57 °FOvercast.13 mph94%29.70 "Hg10 mi
12:35 pm57 °FOvercast.16 mph94%29.72 "Hg10 mi
12:15 pm57 °FLight rain. Overcast.13 mph94%29.73 "Hg10 mi
11:55 am57 °FDrizzle. Partly sunny.16 mph94%29.72 "Hg10 mi
11:35 am57 °FLight rain. Mostly cloudy.13 mph88%29.72 "Hg7 mi
11:15 am57 °FBroken clouds.16 mph88%29.72 "Hg10 mi
10:55 am57 °FScattered clouds.15 mph88%29.69 "Hg10 mi
10:35 am57 °FCloudy.14 mph88%29.70 "Hg10 mi
10:15 am57 °FPartly sunny.12 mph88%29.70 "Hg10 mi
9:55 am57 °FLight rain. Scattered clouds.10 mph88%29.66 "Hg10 mi
9:35 am57 °FLight rain. Cloudy.13 mph88%29.67 "Hg7 mi
9:15 am57 °FPartly sunny.8 mph82%29.68 "Hg10 mi
8:55 am57 °FScattered clouds.7 mph82%29.67 "Hg10 mi
8:35 am57 °FBroken clouds.9 mph82%29.67 "Hg10 mi
8:15 am57 °FMostly cloudy.10 mph82%29.68 "Hg10 mi
7:55 am57 °FPartly sunny.8 mph77%29.65 "Hg10 mi
7:35 am57 °FScattered clouds.5 mph77%29.63 "Hg10 mi
7:15 am57 °FBroken clouds.8 mph77%29.65 "Hg10 mi
6:55 am59 °FPartly cloudy.12 mph72%29.64 "Hg10 mi
6:35 am59 °FOvercast.7 mph72%29.65 "Hg10 mi
6:15 am61 °FOvercast.9 mph68%29.64 "Hg10 mi
5:55 am59 °FPassing clouds.12 mph72%29.60 "Hg10 mi
5:35 am59 °FClear.12 mph68%29.58 "Hg10 mi
5:15 am61 °FPassing clouds.16 mph63%29.58 "Hg10 mi
4:55 am61 °FPassing clouds.21 mph63%29.59 "Hg10 mi
4:35 am61 °FClear.21 mph59%29.57 "Hg10 mi
4:15 am63 °FPassing clouds.17 mph56%29.57 "Hg10 mi
3:35 am64 °FMostly cloudy.24 mph64%29.58 "Hg10 mi
3:15 am73 °FOvercast.9 mph74%29.54 "Hg10 mi
2:55 am73 °FMostly cloudy.12 mph69%29.55 "Hg10 mi
2:35 am73 °FPartly cloudy.12 mph69%29.55 "Hg10 mi
2:15 am75 °FPassing clouds.14 mph65%29.53 "Hg10 mi
1:55 am75 °FPassing clouds.17 mph65%29.51 "Hg10 mi
1:35 am75 °FPassing clouds.21 mph65%29.52 "Hg10 mi
1:15 am75 °FThundershowers. Passing clouds.21 mph65%29.53 "Hg10 mi
12:55 am75 °FThunderstorms. Passing clouds.22 mph65%29.53 "Hg10 mi
12:35 am77 °FPassing clouds.21 mph61%29.53 "Hg10 mi
12:15 am77 °FThunderstorms. Passing clouds.20 mph61%29.54 "Hg10 mi
11:55 pm
Sun, Sep 19
79 °FPartly cloudy.23 mph58%29.55 "Hg10 mi
11:35 pm79 °FThundershowers. Mostly cloudy.21 mph58%29.55 "Hg10 mi
11:15 pm79 °FPartly cloudy.22 mph58%29.55 "Hg10 mi
Weather by CustomWeather, © 2021

See weather overview